Track STARLINK-3817 now! 10-day predictions STARLINK-3817 is classified as:
1 52367U 22045AN 22185.91667824 .00007056 00000-0 54645-4 0 9993 2 52367 53.2157 109.4748 0002657 8.3672 99.3007 15.73206087 1308